Regional Weather Roundup
Issued by NWS

Home | Current Version | Previous Version | Graphics & Text | Print | Product List | Glossary On
Versions: 1 2 3 4 5 6 7 8 9 10 11 12 13 14 15 16 17 18 19 20 21 22 23 24 25 26 27 28 29 30 31 32 33 34 35 36 37 38 39 40 41 42 43 44 45 46 47 48 49 50
000
ASUS45 KABQ 171701
RWRNM
NEW MEXICO REGIONAL WEATHER ROUNDUP
NATIONAL WEATHER SERVICE ALBUQUERQUE NM
1000 AM MST SAT FEB 17 2018

NOTE: "FAIR" MEANS FEW OR NO CLOUDS BELOW 12,000 FEET AGL WITH NO
       SIGNIFICANT WEATHER OR OBSTRUCTIONS TO VISION.

      THIS PRODUCT IS RELEASED AS TWO VERSIONS.  ONE VERSION NEAR
      THE TOP OF THE HOUR CONTAINING PRELIMINARY DATA FROM ALBUQUERQUE
      AND OTHER STATIONS.  A FINAL VERSION WITH ADDITIONAL DATA IS
      ISSUED ABOUT 10 MINUTES AFTER THE HOUR.

NMZ501-503-504-510>518-171800-
NORTHWEST PLATEAU/NORTHCENTRAL MOUNTAINS

CITY           SKY/WX    TMP DP  RH WIND       PRES   REMARKS
FARMINGTON     FAIR      34  20  56 SE5       30.26S WCI  30
LOS ALAMOS     FAIR      36  22  58 CALM      30.22S
SANTA FE       FAIR      43  22  43 N17       30.20R
TAOS           FAIR      38  21  50 SW6       30.25R WCI  33
ANGEL FIRE     FAIR      35  16  45 S14       30.20R WCI  26

$$
NMZ402-403-502-505>509-171800-
WESTCENTRAL MOUNTAINS/SOUTHWEST MOUNTAINS

CITY           SKY/WX    TMP DP  RH WIND       PRES   REMARKS
GALLUP         CLOUDY    35  31  85 NW5       30.27S WCI  31
GRANTS         FAIR      37  28  71 CALM      30.28F
SILVER CITY    FAIR      49  40  68 NW7       30.24R

$$
NMZ407-409-411-412-171800-
SOUTHERN DESERTS

CITY           SKY/WX    TMP DP  RH WIND       PRES   REMARKS
DEMING         NOT AVBL
LAS CRUCES     CLOUDY    49  49 100 CALM      30.24R
ALAMOGORDO     FAIR      50  50 100 N13       30.21S
T OR C         FAIR      48  43  82 NE7       30.22S

$$
NMZ519>523-171800-
CENTRAL VALLEYS/CENTRAL HIGHLANDS

CITY           SKY/WX    TMP DP  RH WIND       PRES   REMARKS
ALBUQUERQUE    FAIR      44  32  62 N3        30.24S
DOUBLE EAGLE   MOSUNNY   45  28  53 NW10      30.24S
MORIARTY ARPT  FAIR      46  26  45 N14G20    30.22R
CLINES CORNERS FAIR      41  21  44 NW16G29   30.22R
BELEN          FAIR      40  40  99 NE7       30.25S
SOCORRO        PTSUNNY   41  39  93 NW6       30.23S

$$
NMZ524>526-539-540-171800-
SOUTHCENTRAL MOUNTAINS

CITY           SKY/WX    TMP DP  RH WIND       PRES   REMARKS
RUIDOSO        NOT AVBL

$$
NMZ527>531-171800-
NORTHEAST HIGHLANDS/NORTHEAST PLAINS

CITY           SKY/WX    TMP DP  RH WIND       PRES   REMARKS
LAS VEGAS      FAIR      49   8  19 E13       30.16R
RATON          FAIR      46  10  23 E6        30.12R
CLAYTON        FAIR      46  12  25 NE14      30.15R

$$
NMZ532>537-171800-
EASTCENTRAL PLAINS

CITY           SKY/WX    TMP DP  RH WIND       PRES   REMARKS
SANTA ROSA     FAIR      54  15  21 NE5       30.14R
TUCUMCARI      FAIR      52  22  30 E21G26    30.14R
CANNON AFB     FAIR      52  32  46 NE15      30.16R
CLOVIS AIRPORT NOT AVBL

$$
NMZ028-029-538-171800-
SOUTHEAST PLAINS

CITY           SKY/WX    TMP DP  RH WIND       PRES   REMARKS
ROSWELL        PTSUNNY   45  45 100 E8        30.16R FOG
ARTESIA        FAIR      48  48 100 NE7       30.18R
CARLSBAD       FAIR      49  47  93 N13       30.15R
HOBBS          SUNNY     55  43  62 NW13      30.16R


$$



USA.gov is the U.S. government's official web portal to all federal, state and local government web resources and services.